Wetterdaten: Woche 15.12.14 - 21.12.14 (KW51)
Datum Zeit Temp. A. Feuchte A. Luftdruck Regen Wind Richtung Sonnenschein ET UV Solar Taupunkt Windchill Windben
15.12.2014 00:00 6,3 C 97 % 1017,0 hPa 0,0 l/m 0,1 km/h (0 Bft) N 0,00 h 0,000 mm 0,0 UV-I 0 W/m 5,9 C 6,3 C 0,7 km/h (0 Bft)
15.12.2014 01:00 6,3 C 97 % 1016,5 hPa 0,0 l/m 0,5 km/h (0 Bft) N 0,00 h 0,000 mm 0,0 UV-I 0 W/m 5,9 C 6,3 C 1,1 km/h (1 Bft)
15.12.2014 02:00 6,2 C 97 % 1016,4 hPa 0,0 l/m 1,6 km/h (1 Bft) SW 0,00 h 0,000 mm 0,0 UV-I 0 W/m 5,8 C 6,2 C 3,6 km/h (1 Bft)
15.12.2014 03:00 6,2 C 96 % 1016,1 hPa 0,0 l/m 2,7 km/h (1 Bft) S-SW 0,00 h 0,000 mm 0,0 UV-I 0 W/m 5,7 C 6,2 C 5,3 km/h (1 Bft)
15.12.2014 04:00 6,3 C 96 % 1015,9 hPa 0,0 l/m 2,6 km/h (1 Bft) W 0,00 h 0,000 mm 0,0 UV-I 0 W/m 5,6 C 6,3 C 5,1 km/h (1 Bft)
15.12.2014 05:00 6,2 C 95 % 1015,8 hPa 0,0 l/m 0,3 km/h (0 Bft) N 0,00 h 0,000 mm 0,0 UV-I 0 W/m 5,4 C 6,2 C 1,0 km/h (0 Bft)
15.12.2014 06:00 6,0 C 96 % 1016,0 hPa 0,0 l/m 3,3 km/h (1 Bft) S 0,00 h 0,000 mm 0,0 UV-I 0 W/m 5,4 C 6,0 C 6,0 km/h (2 Bft)
15.12.2014 07:00 5,9 C 95 % 1015,9 hPa 0,0 l/m 4,0 km/h (1 Bft) S-SO 0,00 h 0,000 mm 0,0 UV-I 0 W/m 5,2 C 5,8 C 7,2 km/h (2 Bft)
15.12.2014 08:00 6,1 C 95 % 1015,8 hPa 0,0 l/m 2,2 km/h (1 Bft) W-SW 0,00 h 0,000 mm 0,0 UV-I 9 W/m 5,3 C 6,1 C 4,6 km/h (1 Bft)
15.12.2014 09:00 6,5 C 95 % 1015,9 hPa 0,0 l/m 2,3 km/h (1 Bft) W-SW 0,15 h 0,000 mm 0,0 UV-I 28 W/m 5,8 C 6,4 C 4,5 km/h (1 Bft)
15.12.2014 10:00 6,9 C 95 % 1016,0 hPa 0,0 l/m 5,3 km/h (1 Bft) S 0,03 h 0,025 mm 0,0 UV-I 26 W/m 6,2 C 6,3 C 9,1 km/h (2 Bft)
15.12.2014 11:00 7,1 C 95 % 1015,8 hPa 0,2 l/m 10,2 km/h (2 Bft) S 0,20 h 0,026 mm 0,0 UV-I 39 W/m 6,3 C 4,4 C 15,3 km/h (3 Bft)
15.12.2014 12:00 7,3 C 94 % 1015,6 hPa 0,0 l/m 7,3 km/h (2 Bft) SW 0,32 h 0,025 mm 0,0 UV-I 43 W/m 6,5 C 6,3 C 12,2 km/h (2 Bft)
15.12.2014 13:00 7,7 C 92 % 1015,4 hPa 0,0 l/m 7,4 km/h (2 Bft) SW 0,85 h 0,025 mm 0,5 UV-I 95 W/m 6,6 C 6,7 C 11,9 km/h (2 Bft)
15.12.2014 14:00 8,1 C 87 % 1015,4 hPa 0,0 l/m 9,7 km/h (2 Bft) W 0,80 h 0,051 mm 0,0 UV-I 123 W/m 6,1 C 5,8 C 14,8 km/h (3 Bft)
15.12.2014 15:00 7,2 C 87 % 1015,6 hPa 0,0 l/m 6,0 km/h (2 Bft) W-SW 0,12 h 0,076 mm 0,0 UV-I 31 W/m 5,1 C 6,7 C 9,4 km/h (2 Bft)
15.12.2014 16:00 5,9 C 87 % 1015,7 hPa 0,0 l/m 5,8 km/h (2 Bft) SW 0,00 h 0,025 mm 0,0 UV-I 8 W/m 3,9 C 5,7 C 9,7 km/h (2 Bft)
15.12.2014 17:00 5,1 C 89 % 1016,0 hPa 0,0 l/m 3,2 km/h (1 Bft) SW 0,00 h 0,000 mm 0,0 UV-I 0 W/m 3,4 C 5,1 C 6,1 km/h (2 Bft)
15.12.2014 18:00 4,9 C 90 % 1016,1 hPa 0,0 l/m 3,6 km/h (1 Bft) S 0,00 h 0,000 mm 0,0 UV-I 0 W/m 3,5 C 4,9 C 6,5 km/h (2 Bft)
15.12.2014 19:00 4,7 C 91 % 1016,2 hPa 0,0 l/m 1,8 km/h (1 Bft) S-SW 0,00 h 0,000 mm 0,0 UV-I 0 W/m 3,4 C 4,7 C 3,9 km/h (1 Bft)
15.12.2014 20:00 4,3 C 92 % 1016,3 hPa 0,0 l/m 3,0 km/h (1 Bft) S-SW 0,00 h 0,000 mm 0,0 UV-I 0 W/m 3,0 C 4,3 C 5,5 km/h (2 Bft)
15.12.2014 21:00 4,3 C 93 % 1016,1 hPa 0,0 l/m 2,1 km/h (1 Bft) S 0,00 h 0,001 mm 0,0 UV-I 0 W/m 3,1 C 4,3 C 4,5 km/h (1 Bft)
15.12.2014 22:00 4,4 C 91 % 1016,0 hPa 0,0 l/m 4,4 km/h (1 Bft) S 0,00 h 0,000 mm 0,0 UV-I 0 W/m 3,0 C 4,3 C 7,6 km/h (2 Bft)
15.12.2014 23:00 4,5 C 90 % 1015,8 hPa 0,0 l/m 4,0 km/h (1 Bft) S 0,00 h 0,000 mm 0,0 UV-I 0 W/m 3,0 C 4,4 C 6,8 km/h (2 Bft)
16.12.2014 00:00 4,5 C 91 % 1015,3 hPa 0,0 l/m 4,6 km/h (1 Bft) S 0,00 h 0,000 mm 0,0 UV-I 0 W/m 3,1 C 4,2 C 7,7 km/h (2 Bft)
16.12.2014 01:00 4,6 C 91 % 1014,9 hPa 0,0 l/m 4,3 km/h (1 Bft) S 0,00 h 0,000 mm 0,0 UV-I 0 W/m 3,2 C 4,3 C 7,1 km/h (2 Bft)
16.12.2014 02:00 4,5 C 91 % 1014,7 hPa 0,0 l/m 4,8 km/h (1 Bft) S 0,00 h 0,000 mm 0,0 UV-I 0 W/m 3,2 C 4,4 C 8,2 km/h (2 Bft)
16.12.2014 03:00 4,3 C 92 % 1014,3 hPa 0,0 l/m 3,9 km/h (1 Bft) S 0,00 h 0,000 mm 0,0 UV-I 0 W/m 3,1 C 4,4 C 6,6 km/h (2 Bft)
16.12.2014 04:00 4,2 C 91 % 1013,7 hPa 0,0 l/m 0,8 km/h (0 Bft) N 0,00 h 0,000 mm 0,0 UV-I 0 W/m 2,8 C 4,2 C 2,0 km/h (1 Bft)
16.12.2014 05:00 3,5 C 92 % 1013,2 hPa 0,0 l/m 0,1 km/h (0 Bft) N 0,00 h 0,000 mm 0,0 UV-I 0 W/m 2,3 C 3,5 C 0,2 km/h (0 Bft)
16.12.2014 06:00 2,8 C 93 % 1013,1 hPa 0,0 l/m 0,0 km/h (0 Bft) N 0,00 h 0,000 mm 0,0 UV-I 0 W/m 1,8 C 2,8 C 0,2 km/h (0 Bft)
16.12.2014 07:00 2,4 C 95 % 1013,2 hPa 0,0 l/m 0,3 km/h (0 Bft) N 0,00 h 0,000 mm 0,0 UV-I 0 W/m 1,6 C 2,4 C 1,2 km/h (1 Bft)
16.12.2014 08:00 2,7 C 96 % 1013,4 hPa 0,0 l/m 0,1 km/h (0 Bft) N 0,00 h 0,000 mm 0,0 UV-I 11 W/m 2,2 C 2,7 C 0,5 km/h (0 Bft)
16.12.2014 09:00 3,3 C 96 % 1013,4 hPa 0,0 l/m 0,8 km/h (0 Bft) S-SO 0,40 h 0,000 mm 0,0 UV-I 42 W/m 2,7 C 3,3 C 1,7 km/h (1 Bft)
16.12.2014 10:00 4,1 C 96 % 1013,3 hPa 0,0 l/m 2,8 km/h (1 Bft) S 1,00 h 0,025 mm 0,5 UV-I 87 W/m 3,5 C 4,1 C 5,1 km/h (1 Bft)
16.12.2014 11:00 4,6 C 94 % 1012,8 hPa 0,0 l/m 4,1 km/h (1 Bft) S 0,32 h 0,026 mm 0,0 UV-I 43 W/m 3,8 C 4,4 C 7,4 km/h (2 Bft)
16.12.2014 12:00 4,5 C 93 % 1012,4 hPa 0,0 l/m 5,8 km/h (2 Bft) W-SW 0,00 h 0,025 mm 0,0 UV-I 24 W/m 3,5 C 4,2 C 9,4 km/h (2 Bft)
16.12.2014 13:00 4,4 C 93 % 1012,1 hPa 0,0 l/m 5,3 km/h (1 Bft) W-SW 0,05 h 0,025 mm 0,0 UV-I 28 W/m 3,5 C 3,9 C 8,6 km/h (2 Bft)
16.12.2014 14:00 4,6 C 92 % 1011,9 hPa 0,0 l/m 4,4 km/h (1 Bft) W 0,00 h 0,025 mm 0,0 UV-I 13 W/m 3,4 C 4,2 C 7,7 km/h (2 Bft)
16.12.2014 15:00 4,4 C 93 % 1012,1 hPa 0,0 l/m 5,1 km/h (1 Bft) W-SW 0,00 h 0,000 mm 0,0 UV-I 8 W/m 3,4 C 4,1 C 8,1 km/h (2 Bft)
16.12.2014 16:00 4,3 C 94 % 1011,9 hPa 0,0 l/m 2,5 km/h (1 Bft) SW 0,00 h 0,000 mm 0,0 UV-I 0 W/m 3,4 C 4,3 C 5,3 km/h (1 Bft)
16.12.2014 17:00 4,2 C 94 % 1012,0 hPa 0,0 l/m 4,0 km/h (1 Bft) S-SW 0,00 h 0,000 mm 0,0 UV-I 0 W/m 3,4 C 4,2 C 7,5 km/h (2 Bft)
16.12.2014 18:00 4,3 C 95 % 1012,3 hPa 0,0 l/m 3,2 km/h (1 Bft) SW 0,00 h 0,001 mm 0,0 UV-I 0 W/m 3,5 C 4,2 C 6,2 km/h (2 Bft)
16.12.2014 19:00 4,3 C 95 % 1012,5 hPa 0,0 l/m 1,8 km/h (1 Bft) SW 0,00 h 0,000 mm 0,0 UV-I 0 W/m 3,6 C 4,3 C 4,3 km/h (1 Bft)
16.12.2014 20:00 4,2 C 95 % 1012,4 hPa 0,0 l/m 3,3 km/h (1 Bft) SW 0,00 h 0,000 mm 0,0 UV-I 0 W/m 3,5 C 4,2 C 6,2 km/h (2 Bft)
16.12.2014 21:00 4,2 C 94 % 1012,7 hPa 0,0 l/m 4,6 km/h (1 Bft) W 0,00 h 0,000 mm 0,0 UV-I 0 W/m 3,4 C 4,0 C 7,7 km/h (2 Bft)
16.12.2014 22:00 4,0 C 93 % 1013,0 hPa 0,0 l/m 3,8 km/h (1 Bft) W-NW 0,00 h 0,000 mm 0,0 UV-I 0 W/m 3,0 C 4,0 C 6,5 km/h (2 Bft)
16.12.2014 23:00 3,7 C 92 % 1013,2 hPa 0,0 l/m 3,7 km/h (1 Bft) W-SW 0,00 h 0,000 mm 0,0 UV-I 0 W/m 2,6 C 3,6 C 6,6 km/h (2 Bft)
17.12.2014 00:00 2,9 C 92 % 1013,6 hPa 0,0 l/m 6,0 km/h (2 Bft) NW 0,00 h 0,000 mm 0,0 UV-I 0 W/m 1,8 C 2,2 C 9,4 km/h (2 Bft)
17.12.2014 01:00 2,6 C 91 % 1013,9 hPa 0,0 l/m 4,8 km/h (1 Bft) NW 0,00 h 0,000 mm 0,0 UV-I 0 W/m 1,3 C 2,1 C 8,5 km/h (2 Bft)
17.12.2014 02:00 2,3 C 89 % 1014,2 hPa 0,0 l/m 1,7 km/h (1 Bft) NW 0,00 h 0,000 mm 0,0 UV-I 0 W/m 0,7 C 2,3 C 3,6 km/h (1 Bft)
17.12.2014 03:00 2,1 C 93 % 1014,3 hPa 0,0 l/m 1,2 km/h (1 Bft) SW 0,00 h 0,000 mm 0,0 UV-I 0 W/m 1,0 C 2,1 C 3,2 km/h (1 Bft)
17.12.2014 04:00 2,0 C 92 % 1014,4 hPa 0,0 l/m 3,4 km/h (1 Bft) SW 0,00 h 0,000 mm 0,0 UV-I 0 W/m 0,9 C 1,8 C 6,5 km/h (2 Bft)
17.12.2014 05:00 1,9 C 93 % 1014,3 hPa 0,0 l/m 3,3 km/h (1 Bft) SW 0,00 h 0,000 mm 0,0 UV-I 0 W/m 1,0 C 1,9 C 6,4 km/h (2 Bft)
17.12.2014 06:00 1,8 C 93 % 1014,1 hPa 0,0 l/m 3,0 km/h (1 Bft) SW 0,00 h 0,000 mm 0,0 UV-I 0 W/m 0,8 C 1,8 C 6,0 km/h (2 Bft)
17.12.2014 07:00 1,5 C 94 % 1013,9 hPa 0,0 l/m 4,6 km/h (1 Bft) SW 0,00 h 0,000 mm 0,0 UV-I 0 W/m 0,6 C 1,4 C 8,5 km/h (2 Bft)
17.12.2014 08:00 1,5 C 93 % 1013,8 hPa 0,0 l/m 5,3 km/h (1 Bft) SW 0,00 h 0,000 mm 0,0 UV-I 15 W/m 0,5 C 1,1 C 9,2 km/h (2 Bft)
17.12.2014 09:00 1,7 C 92 % 1013,5 hPa 0,0 l/m 7,1 km/h (2 Bft) S 0,38 h 0,000 mm 0,0 UV-I 51 W/m 0,6 C 0,4 C 11,1 km/h (2 Bft)
17.12.2014 10:00 1,9 C 92 % 1012,9 hPa 0,0 l/m 10,2 km/h (2 Bft) S 1,00 h 0,025 mm 0,5 UV-I 84 W/m 0,7 C -1,3 C 16,4 km/h (3 Bft)
17.12.2014 11:00 2,1 C 90 % 1011,9 hPa 0,0 l/m 8,7 km/h (2 Bft) S 1,00 h 0,025 mm 0,5 UV-I 79 W/m 0,6 C -0,1 C 13,7 km/h (3 Bft)
17.12.2014 12:00 2,2 C 87 % 1010,8 hPa 0,0 l/m 8,5 km/h (2 Bft) S 0,33 h 0,025 mm 0,0 UV-I 46 W/m 0,3 C 0,1 C 13,6 km/h (3 Bft)
17.12.2014 13:00 2,2 C 87 % 1009,8 hPa 0,0 l/m 8,9 km/h (2 Bft) S 0,00 h 0,025 mm 0,0 UV-I 29 W/m 0,3 C -0,2 C 14,4 km/h (3 Bft)
17.12.2014 14:00 2,1 C 92 % 1009,1 hPa 0,0 l/m 10,0 km/h (2 Bft) S 0,00 h 0,025 mm 0,0 UV-I 24 W/m 0,9 C -0,9 C 15,6 km/h (3 Bft)
17.12.2014 15:00 1,8 C 95 % 1008,5 hPa 0,4 l/m 8,7 km/h (2 Bft) S 0,00 h 0,025 mm 0,0 UV-I 9 W/m 1,0 C -0,4 C 14,0 km/h (3 Bft)
17.12.2014 16:00 1,2 C 95 % 1008,3 hPa 0,2 l/m 5,2 km/h (1 Bft) S 0,00 h 0,000 mm 0,0 UV-I 0 W/m 0,5 C 0,8 C 8,6 km/h (2 Bft)
17.12.2014 17:00 1,2 C 96 % 1008,1 hPa 0,8 l/m 10,7 km/h (2 Bft) S 0,00 h 0,000 mm 0,0 UV-I 0 W/m 0,7 C -2,5 C 16,9 km/h (3 Bft)
17.12.2014 18:00 1,9 C 96 % 1008,6 hPa 0,4 l/m 11,4 km/h (2 Bft) W-SW 0,00 h 0,000 mm 0,0 UV-I 0 W/m 1,3 C -2,3 C 18,3 km/h (3 Bft)
17.12.2014 19:00 2,1 C 96 % 1009,0 hPa 0,0 l/m 8,1 km/h (2 Bft) W-SW 0,00 h 0,000 mm 0,0 UV-I 0 W/m 1,5 C 0,4 C 13,2 km/h (3 Bft)
17.12.2014 20:00 2,2 C 97 % 1009,5 hPa 0,0 l/m 5,6 km/h (2 Bft) W-SW 0,00 h 0,000 mm 0,0 UV-I 0 W/m 1,7 C 1,7 C 9,6 km/h (2 Bft)
17.12.2014 21:00 2,4 C 97 % 1010,2 hPa 0,0 l/m 6,8 km/h (2 Bft) W-SW 0,00 h 0,002 mm 0,0 UV-I 0 W/m 2,0 C 1,4 C 11,3 km/h (2 Bft)
17.12.2014 22:00 2,8 C 97 % 1011,2 hPa 0,0 l/m 8,2 km/h (2 Bft) W-NW 0,00 h 0,000 mm 0,0 UV-I 0 W/m 2,4 C 1,1 C 12,9 km/h (3 Bft)
17.12.2014 23:00 3,1 C 97 % 1012,1 hPa 0,0 l/m 6,2 km/h (2 Bft) W-SW 0,00 h 0,000 mm 0,0 UV-I 0 W/m 2,7 C 2,4 C 9,8 km/h (2 Bft)
18.12.2014 00:00 3,4 C 97 % 1012,6 hPa 0,0 l/m 6,4 km/h (2 Bft) W-SW 0,00 h 0,000 mm 0,0 UV-I 0 W/m 3,0 C 2,8 C 10,4 km/h (2 Bft)
18.12.2014 01:00 3,8 C 97 % 1013,1 hPa 0,0 l/m 5,9 km/h (2 Bft) W-SW 0,00 h 0,000 mm 0,0 UV-I 0 W/m 3,4 C 3,2 C 9,5 km/h (2 Bft)
18.12.2014 02:00 4,2 C 97 % 1013,8 hPa 0,0 l/m 7,1 km/h (2 Bft) W-SW 0,00 h 0,000 mm 0,0 UV-I 0 W/m 3,8 C 3,2 C 11,3 km/h (2 Bft)
18.12.2014 03:00 4,5 C 97 % 1014,2 hPa 0,0 l/m 5,4 km/h (2 Bft) W-SW 0,00 h 0,000 mm 0,0 UV-I 0 W/m 4,1 C 4,1 C 9,0 km/h (2 Bft)
18.12.2014 04:00 4,7 C 98 % 1014,4 hPa 0,2 l/m 5,1 km/h (1 Bft) W-SW 0,00 h 0,000 mm 0,0 UV-I 0 W/m 4,5 C 4,5 C 8,6 km/h (2 Bft)
18.12.2014 05:00 5,1 C 98 % 1014,6 hPa 0,0 l/m 4,6 km/h (1 Bft) W-SW 0,00 h 0,000 mm 0,0 UV-I 0 W/m 4,8 C 4,9 C 8,4 km/h (2 Bft)
18.12.2014 06:00 5,5 C 98 % 1014,9 hPa 0,0 l/m 6,4 km/h (2 Bft) W-SW 0,00 h 0,000 mm 0,0 UV-I 0 W/m 5,2 C 4,9 C 9,9 km/h (2 Bft)
18.12.2014 07:00 5,8 C 98 % 1015,4 hPa 0,0 l/m 4,8 km/h (1 Bft) W-SW 0,00 h 0,000 mm 0,0 UV-I 0 W/m 5,5 C 5,5 C 8,2 km/h (2 Bft)
18.12.2014 08:00 6,0 C 98 % 1015,7 hPa 0,0 l/m 6,5 km/h (2 Bft) S 0,00 h 0,000 mm 0,0 UV-I 7 W/m 5,7 C 5,2 C 10,5 km/h (2 Bft)
18.12.2014 09:00 6,2 C 98 % 1015,7 hPa 0,0 l/m 5,8 km/h (2 Bft) W-SW 0,00 h 0,000 mm 0,0 UV-I 17 W/m 6,0 C 5,7 C 9,9 km/h (2 Bft)
18.12.2014 10:00 6,6 C 98 % 1015,7 hPa 0,0 l/m 7,6 km/h (2 Bft) S-SW 0,25 h 0,000 mm 0,0 UV-I 43 W/m 6,4 C 5,5 C 11,8 km/h (2 Bft)
18.12.2014 11:00 6,8 C 98 % 1015,1 hPa 0,0 l/m 6,4 km/h (2 Bft) S 0,00 h 0,025 mm 0,0 UV-I 23 W/m 6,5 C 6,3 C 10,2 km/h (2 Bft)
18.12.2014 12:00 7,2 C 98 % 1014,5 hPa 0,0 l/m 9,8 km/h (2 Bft) SW 0,45 h 0,000 mm 0,5 UV-I 53 W/m 6,9 C 4,7 C 15,2 km/h (3 Bft)
18.12.2014 13:00 7,4 C 98 % 1014,2 hPa 0,2 l/m 8,4 km/h (2 Bft) S-SW 0,23 h 0,025 mm 0,0 UV-I 31 W/m 7,1 C 5,8 C 13,5 km/h (3 Bft)
18.12.2014 14:00 7,6 C 98 % 1014,0 hPa 0,0 l/m 6,6 km/h (2 Bft) SW 0,00 h 0,025 mm 0,0 UV-I 15 W/m 7,3 C 6,9 C 10,9 km/h (2 Bft)
18.12.2014 15:00 7,8 C 98 % 1014,1 hPa 0,2 l/m 7,5 km/h (2 Bft) SW 0,00 h 0,000 mm 0,0 UV-I 10 W/m 7,5 C 6,7 C 11,9 km/h (2 Bft)
18.12.2014 16:00 7,9 C 98 % 1014,3 hPa 0,2 l/m 7,3 km/h (2 Bft) SW 0,00 h 0,000 mm 0,0 UV-I 0 W/m 7,6 C 6,9 C 11,9 km/h (2 Bft)
18.12.2014 17:00 7,9 C 98 % 1014,5 hPa 0,2 l/m 7,4 km/h (2 Bft) W-SW 0,00 h 0,000 mm 0,0 UV-I 0 W/m 7,6 C 6,9 C 12,1 km/h (2 Bft)
18.12.2014 18:00 8,1 C 98 % 1014,6 hPa 0,6 l/m 6,7 km/h (2 Bft) W-SW 0,00 h 0,000 mm 0,0 UV-I 0 W/m 7,8 C 7,3 C 10,8 km/h (2 Bft)
18.12.2014 19:00 8,6 C 98 % 1014,6 hPa 0,6 l/m 9,7 km/h (2 Bft) W-SW 0,00 h 0,000 mm 0,0 UV-I 0 W/m 8,3 C 6,3 C 14,5 km/h (3 Bft)
18.12.2014 20:00 9,1 C 98 % 1014,6 hPa 0,0 l/m 10,0 km/h (2 Bft) W-SW 0,00 h 0,000 mm 0,0 UV-I 0 W/m 8,8 C 6,6 C 15,5 km/h (3 Bft)
18.12.2014 21:00 9,5 C 98 % 1014,6 hPa 0,2 l/m 9,7 km/h (2 Bft) W-SW 0,00 h 0,000 mm 0,0 UV-I 0 W/m 9,2 C 7,4 C 14,7 km/h (3 Bft)
18.12.2014 22:00 10,1 C 98 % 1014,7 hPa 0,2 l/m 11,2 km/h (2 Bft) W-SW 0,00 h 0,000 mm 0,0 UV-I 0 W/m 9,7 C 7,1 C 17,7 km/h (3 Bft)
18.12.2014 23:00 10,3 C 97 % 1014,9 hPa 0,0 l/m 8,7 km/h (2 Bft) SW 0,00 h 0,000 mm 0,0 UV-I 0 W/m 9,8 C 8,6 C 14,4 km/h (3 Bft)
19.12.2014 00:00 10,4 C 96 % 1015,5 hPa 0,2 l/m 12,3 km/h (2 Bft) W-SW 0,00 h 0,000 mm 0,0 UV-I 0 W/m 9,8 C 7,1 C 19,1 km/h (3 Bft)
19.12.2014 01:00 10,2 C 94 % 1015,8 hPa 0,2 l/m 13,5 km/h (3 Bft) W-SW 0,00 h 0,000 mm 0,0 UV-I 0 W/m 9,3 C 6,2 C 21,6 km/h (4 Bft)
19.12.2014 02:00 9,6 C 93 % 1015,9 hPa 0,2 l/m 16,9 km/h (3 Bft) W-SW 0,00 h 0,000 mm 0,0 UV-I 0 W/m 8,6 C 4,1 C 27,3 km/h (5 Bft)
19.12.2014 03:00 9,3 C 92 % 1015,8 hPa 0,0 l/m 18,9 km/h (3 Bft) W-SW 0,00 h 0,025 mm 0,0 UV-I 0 W/m 8,0 C 3,0 C 30,2 km/h (5 Bft)
19.12.2014 04:00 8,8 C 93 % 1016,1 hPa 0,0 l/m 17,7 km/h (3 Bft) W-SW 0,00 h 0,000 mm 0,0 UV-I 0 W/m 7,7 C 2,8 C 28,0 km/h (5 Bft)
19.12.2014 05:00 8,4 C 94 % 1016,2 hPa 0,0 l/m 11,2 km/h (2 Bft) SW 0,00 h 0,025 mm 0,0 UV-I 0 W/m 7,5 C 5,3 C 17,7 km/h (3 Bft)
19.12.2014 06:00 8,3 C 93 % 1016,2 hPa 0,0 l/m 10,3 km/h (2 Bft) SW 0,00 h 0,000 mm 0,0 UV-I 0 W/m 7,3 C 5,7 C 16,7 km/h (3 Bft)
19.12.2014 07:00 8,6 C 91 % 1016,1 hPa 0,0 l/m 11,0 km/h (2 Bft) W-SW 0,00 h 0,000 mm 0,0 UV-I 0 W/m 7,2 C 5,6 C 17,6 km/h (3 Bft)
19.12.2014 08:00 8,7 C 90 % 1015,8 hPa 0,0 l/m 11,8 km/h (2 Bft) W-SW 0,00 h 0,000 mm 0,0 UV-I 7 W/m 7,1 C 5,3 C 18,7 km/h (3 Bft)
19.12.2014 09:00 8,8 C 88 % 1015,4 hPa 0,0 l/m 16,2 km/h (3 Bft) W-SW 0,27 h 0,026 mm 0,0 UV-I 39 W/m 7,0 C 3,3 C 24,7 km/h (4 Bft)
19.12.2014 10:00 9,1 C 88 % 1015,3 hPa 0,0 l/m 17,1 km/h (3 Bft) W-SW 0,00 h 0,025 mm 0,0 UV-I 33 W/m 7,2 C 3,4 C 26,6 km/h (4 Bft)
19.12.2014 11:00 9,3 C 87 % 1014,8 hPa 0,0 l/m 19,0 km/h (3 Bft) W-SW 0,30 h 0,025 mm 0,0 UV-I 45 W/m 7,2 C 2,8 C 28,5 km/h (5 Bft)
19.12.2014 12:00 9,5 C 83 % 1014,4 hPa 0,0 l/m 21,1 km/h (4 Bft) W-SW 0,50 h 0,051 mm 0,5 UV-I 52 W/m 6,8 C 2,4 C 32,3 km/h (5 Bft)
19.12.2014 13:00 9,2 C 86 % 1013,9 hPa 0,2 l/m 17,4 km/h (3 Bft) W-SW 0,00 h 0,051 mm 0,0 UV-I 28 W/m 6,9 C 3,3 C 26,3 km/h (4 Bft)
19.12.2014 14:00 8,7 C 89 % 1013,6 hPa 0,0 l/m 12,1 km/h (2 Bft) W-SW 0,00 h 0,051 mm 0,0 UV-I 8 W/m 6,9 C 5,1 C 18,7 km/h (3 Bft)
19.12.2014 15:00 8,5 C 90 % 1013,4 hPa 0,2 l/m 12,1 km/h (2 Bft) W-SW 0,00 h 0,025 mm 0,0 UV-I 6 W/m 7,0 C 4,9 C 19,3 km/h (3 Bft)
19.12.2014 16:00 8,2 C 92 % 1013,0 hPa 0,2 l/m 11,4 km/h (2 Bft) W-SW 0,00 h 0,025 mm 0,0 UV-I 0 W/m 7,0 C 5,0 C 18,1 km/h (3 Bft)
19.12.2014 17:00 8,0 C 94 % 1013,0 hPa 0,6 l/m 9,3 km/h (2 Bft) W-SW 0,00 h 0,000 mm 0,0 UV-I 0 W/m 7,0 C 5,9 C 14,6 km/h (3 Bft)
19.12.2014 18:00 8,0 C 94 % 1013,0 hPa 0,4 l/m 11,1 km/h (2 Bft) W-SW 0,00 h 0,000 mm 0,0 UV-I 0 W/m 7,1 C 4,8 C 18,1 km/h (3 Bft)
19.12.2014 19:00 8,1 C 95 % 1013,2 hPa 0,4 l/m 10,4 km/h (2 Bft) W-SW 0,00 h 0,000 mm 0,0 UV-I 0 W/m 7,4 C 5,4 C 16,5 km/h (3 Bft)
19.12.2014 20:00 8,0 C 93 % 1014,1 hPa 0,6 l/m 10,2 km/h (2 Bft) W 0,00 h 0,000 mm 0,0 UV-I 0 W/m 7,0 C 5,4 C 15,4 km/h (3 Bft)
19.12.2014 21:00 7,5 C 90 % 1014,3 hPa 0,0 l/m 8,1 km/h (2 Bft) W-SW 0,00 h 0,000 mm 0,0 UV-I 0 W/m 5,9 C 6,1 C 12,3 km/h (2 Bft)
19.12.2014 22:00 7,2 C 91 % 1015,4 hPa 0,0 l/m 8,1 km/h (2 Bft) W 0,00 h 0,000 mm 0,0 UV-I 0 W/m 5,8 C 5,8 C 12,6 km/h (2 Bft)
19.12.2014 23:00 6,6 C 88 % 1016,2 hPa 0,0 l/m 10,5 km/h (2 Bft) W 0,00 h 0,000 mm 0,0 UV-I 0 W/m 4,7 C 3,6 C 16,2 km/h (3 Bft)
20.12.2014 00:00 5,6 C 87 % 1017,8 hPa 0,0 l/m 12,0 km/h (2 Bft) NW 0,00 h 0,025 mm 0,0 UV-I 0 W/m 3,6 C 1,6 C 18,2 km/h (3 Bft)
20.12.2014 01:00 3,9 C 84 % 1019,0 hPa 0,0 l/m 9,5 km/h (2 Bft) W-NW 0,00 h 0,025 mm 0,0 UV-I 0 W/m 1,6 C 1,2 C 15,4 km/h (3 Bft)
20.12.2014 02:00 3,5 C 86 % 1020,0 hPa 0,0 l/m 7,8 km/h (2 Bft) W 0,00 h 0,025 mm 0,0 UV-I 0 W/m 1,4 C 2,0 C 12,2 km/h (2 Bft)
20.12.2014 03:00 2,9 C 88 % 1020,5 hPa 0,0 l/m 8,7 km/h (2 Bft) W 0,00 h 0,025 mm 0,0 UV-I 0 W/m 1,1 C 0,8 C 13,3 km/h (3 Bft)
20.12.2014 04:00 2,6 C 88 % 1020,8 hPa 0,0 l/m 10,0 km/h (2 Bft) W-SW 0,00 h 0,000 mm 0,0 UV-I 0 W/m 0,9 C -0,5 C 15,3 km/h (3 Bft)
20.12.2014 05:00 2,4 C 89 % 1021,0 hPa 0,0 l/m 11,1 km/h (2 Bft) W-SW 0,00 h 0,000 mm 0,0 UV-I 0 W/m 0,7 C -1,4 C 16,8 km/h (3 Bft)
20.12.2014 06:00 2,4 C 89 % 1021,2 hPa 0,0 l/m 12,2 km/h (2 Bft) W-SW 0,00 h 0,025 mm 0,0 UV-I 0 W/m 0,7 C -2,2 C 18,5 km/h (3 Bft)
20.12.2014 07:00 2,4 C 89 % 1021,3 hPa 0,0 l/m 13,0 km/h (3 Bft) W-SW 0,00 h 0,025 mm 0,0 UV-I 0 W/m 0,7 C -2,7 C 20,4 km/h (4 Bft)
20.12.2014 08:00 2,5 C 89 % 1021,5 hPa 0,0 l/m 12,1 km/h (2 Bft) W-SW 0,00 h 0,000 mm 0,0 UV-I 7 W/m 0,9 C -2,0 C 18,6 km/h (3 Bft)
20.12.2014 09:00 2,6 C 89 % 1021,5 hPa 0,0 l/m 11,7 km/h (2 Bft) W-SW 0,02 h 0,025 mm 0,0 UV-I 25 W/m 0,9 C -1,6 C 17,2 km/h (3 Bft)
20.12.2014 10:00 2,7 C 87 % 1021,2 hPa 0,2 l/m 16,5 km/h (3 Bft) W-SW 0,62 h 0,025 mm 0,0 UV-I 52 W/m 0,7 C -4,4 C 25,4 km/h (4 Bft)
20.12.2014 11:00 2,9 C 87 % 1020,5 hPa 0,0 l/m 14,1 km/h (3 Bft) W-SW 0,95 h 0,025 mm 0,0 UV-I 66 W/m 0,9 C -2,8 C 21,6 km/h (4 Bft)
20.12.2014 12:00 3,2 C 86 % 1020,0 hPa 0,0 l/m 13,9 km/h (3 Bft) W-SW 0,25 h 0,051 mm 0,0 UV-I 35 W/m 1,0 C -2,4 C 21,8 km/h (4 Bft)
20.12.2014 13:00 3,4 C 83 % 1019,3 hPa 0,0 l/m 12,8 km/h (3 Bft) W-SW 0,00 h 0,025 mm 0,0 UV-I 21 W/m 0,8 C -1,4 C 20,1 km/h (4 Bft)
20.12.2014 14:00 3,6 C 83 % 1018,6 hPa 0,0 l/m 13,6 km/h (3 Bft) W-SW 0,00 h 0,025 mm 0,0 UV-I 13 W/m 1,0 C -1,7 C 21,0 km/h (4 Bft)
20.12.2014 15:00 3,3 C 89 % 1018,0 hPa 0,0 l/m 13,9 km/h (3 Bft) W-SW 0,00 h 0,025 mm 0,0 UV-I 9 W/m 1,6 C -2,2 C 21,7 km/h (4 Bft)
20.12.2014 16:00 3,1 C 91 % 1017,8 hPa 0,0 l/m 13,9 km/h (3 Bft) W-SW 0,00 h 0,025 mm 0,0 UV-I 0 W/m 1,7 C -2,3 C 21,5 km/h (4 Bft)
20.12.2014 17:00 3,1 C 90 % 1017,6 hPa 0,0 l/m 13,6 km/h (3 Bft) W-SW 0,00 h 0,000 mm 0,0 UV-I 0 W/m 1,7 C -2,2 C 20,3 km/h (4 Bft)
20.12.2014 18:00 3,1 C 89 % 1017,9 hPa 0,0 l/m 14,6 km/h (3 Bft) W-SW 0,00 h 0,025 mm 0,0 UV-I 0 W/m 1,5 C -2,8 C 23,0 km/h (4 Bft)
20.12.2014 19:00 3,1 C 91 % 1018,4 hPa 0,4 l/m 16,5 km/h (3 Bft) W 0,00 h 0,025 mm 0,0 UV-I 0 W/m 1,8 C -3,9 C 25,3 km/h (4 Bft)
20.12.2014 20:00 2,8 C 92 % 1019,4 hPa 0,6 l/m 15,6 km/h (3 Bft) W 0,00 h 0,025 mm 0,0 UV-I 0 W/m 1,7 C -3,7 C 23,4 km/h (4 Bft)
20.12.2014 21:00 2,5 C 94 % 1020,3 hPa 0,4 l/m 11,9 km/h (2 Bft) W 0,00 h 0,000 mm 0,0 UV-I 0 W/m 1,6 C -1,7 C 18,5 km/h (3 Bft)
20.12.2014 22:00 2,4 C 93 % 1021,2 hPa 0,0 l/m 12,6 km/h (3 Bft) W 0,00 h 0,000 mm 0,0 UV-I 0 W/m 1,4 C -2,5 C 19,2 km/h (3 Bft)
20.12.2014 23:00 2,4 C 91 % 1022,5 hPa 0,0 l/m 12,4 km/h (2 Bft) W 0,00 h 0,000 mm 0,0 UV-I 0 W/m 1,1 C -2,3 C 19,7 km/h (3 Bft)
21.12.2014 00:00 2,1 C 89 % 1023,8 hPa 0,0 l/m 8,3 km/h (2 Bft) W-NW 0,00 h 0,000 mm 0,0 UV-I 0 W/m 0,4 C 0,2 C 13,4 km/h (3 Bft)
21.12.2014 01:00 2,0 C 88 % 1024,5 hPa 0,0 l/m 9,4 km/h (2 Bft) W 0,00 h 0,000 mm 0,0 UV-I 0 W/m 0,2 C -0,9 C 15,4 km/h (3 Bft)
21.12.2014 02:00 2,0 C 89 % 1025,3 hPa 0,0 l/m 8,2 km/h (2 Bft) W 0,00 h 0,000 mm 0,0 UV-I 0 W/m 0,4 C 0,0 C 12,9 km/h (3 Bft)
21.12.2014 03:00 2,4 C 85 % 1026,2 hPa 0,0 l/m 14,5 km/h (3 Bft) W-NW 0,00 h 0,000 mm 0,0 UV-I 0 W/m 0,1 C -3,5 C 22,8 km/h (4 Bft)
21.12.2014 04:00 2,4 C 85 % 1026,8 hPa 0,0 l/m 13,1 km/h (3 Bft) W-NW 0,00 h 0,025 mm 0,0 UV-I 0 W/m 0,1 C -2,6 C 20,7 km/h (4 Bft)
21.12.2014 05:00 2,3 C 84 % 1027,2 hPa 0,0 l/m 15,7 km/h (3 Bft) W 0,00 h 0,025 mm 0,0 UV-I 0 W/m -0,1 C -4,3 C 24,2 km/h (4 Bft)
21.12.2014 06:00 2,4 C 84 % 1028,1 hPa 0,0 l/m 11,8 km/h (2 Bft) W 0,00 h 0,025 mm 0,0 UV-I 0 W/m 0,0 C -2,0 C 17,9 km/h (3 Bft)
21.12.2014 07:00 2,2 C 86 % 1028,8 hPa 0,0 l/m 10,8 km/h (2 Bft) W 0,00 h 0,025 mm 0,0 UV-I 0 W/m 0,1 C -1,3 C 17,0 km/h (3 Bft)
21.12.2014 08:00 2,3 C 89 % 1029,6 hPa 0,0 l/m 11,8 km/h (2 Bft) W 0,00 h 0,025 mm 0,0 UV-I 16 W/m 0,7 C -1,9 C 17,7 km/h (3 Bft)
21.12.2014 09:00 2,7 C 88 % 1030,4 hPa 0,0 l/m 10,3 km/h (2 Bft) W 0,42 h 0,025 mm 0,0 UV-I 48 W/m 0,8 C -0,5 C 15,8 km/h (3 Bft)
21.12.2014 10:00 2,9 C 88 % 1030,7 hPa 0,0 l/m 8,3 km/h (2 Bft) W-SW 0,50 h 0,025 mm 0,6 UV-I 60 W/m 1,1 C 1,2 C 13,1 km/h (3 Bft)
21.12.2014 11:00 3,3 C 86 % 1030,7 hPa 0,0 l/m 7,2 km/h (2 Bft) W-SW 0,15 h 0,025 mm 0,5 UV-I 34 W/m 1,2 C 2,1 C 11,7 km/h (2 Bft)
21.12.2014 12:00 3,2 C 89 % 1030,2 hPa 0,0 l/m 9,6 km/h (2 Bft) W-SW 0,18 h 0,025 mm 0,0 UV-I 35 W/m 1,6 C 0,5 C 15,0 km/h (3 Bft)
21.12.2014 13:00 3,4 C 88 % 1029,8 hPa 0,0 l/m 11,7 km/h (2 Bft) W-SW 0,42 h 0,025 mm 0,5 UV-I 65 W/m 1,6 C -0,7 C 17,9 km/h (3 Bft)
21.12.2014 14:00 3,4 C 86 % 1029,5 hPa 0,0 l/m 11,0 km/h (2 Bft) W-SW 0,27 h 0,025 mm 0,0 UV-I 35 W/m 1,3 C -0,2 C 16,4 km/h (3 Bft)
21.12.2014 15:00 3,1 C 91 % 1029,3 hPa 0,2 l/m 8,1 km/h (2 Bft) W-SW 0,00 h 0,025 mm 0,0 UV-I 7 W/m 1,8 C 1,2 C 12,9 km/h (3 Bft)
21.12.2014 16:00 3,0 C 92 % 1029,0 hPa 0,0 l/m 9,3 km/h (2 Bft) W-SW 0,00 h 0,000 mm 0,0 UV-I 0 W/m 1,9 C 0,5 C 14,3 km/h (3 Bft)
21.12.2014 17:00 3,1 C 92 % 1028,4 hPa 0,0 l/m 7,8 km/h (2 Bft) W-SW 0,00 h 0,005 mm 0,0 UV-I 0 W/m 1,9 C 1,4 C 12,9 km/h (3 Bft)
21.12.2014 18:00 3,3 C 91 % 1028,3 hPa 0,2 l/m 9,1 km/h (2 Bft) W-SW 0,00 h 0,000 mm 0,0 UV-I 0 W/m 1,9 C 0,9 C 14,4 km/h (3 Bft)
21.12.2014 19:00 3,6 C 90 % 1027,7 hPa 0,0 l/m 12,3 km/h (2 Bft) SW 0,00 h 0,000 mm 0,0 UV-I 0 W/m 2,0 C -0,9 C 19,4 km/h (3 Bft)
21.12.2014 20:00 3,7 C 89 % 1027,5 hPa 0,0 l/m 11,6 km/h (2 Bft) W-SW 0,00 h 0,025 mm 0,0 UV-I 0 W/m 2,0 C -0,3 C 18,5 km/h (3 Bft)
21.12.2014 21:00 3,8 C 88 % 1026,9 hPa 0,0 l/m 12,6 km/h (3 Bft) SW 0,00 h 0,026 mm 0,0 UV-I 0 W/m 1,9 C -0,9 C 20,4 km/h (4 Bft)
21.12.2014 22:00 3,6 C 90 % 1026,3 hPa 0,0 l/m 10,2 km/h (2 Bft) SW 0,00 h 0,025 mm 0,0 UV-I 0 W/m 2,1 C 0,6 C 16,3 km/h (3 Bft)
21.12.2014 23:00 3,6 C 91 % 1026,1 hPa 0,0 l/m 10,7 km/h (2 Bft) SW 0,00 h 0,000 mm 0,0 UV-I 0 W/m 2,2 C 0,2 C 17,2 km/h (3 Bft)
Min-Datum _ 17.12.14 19.12.14 17.12.14 - 15.12.14 - - - - - 21.12.14 21.12.14 15.12.14
_ Min-Zeit 16:57 12:38 17:18 - 00:00 - - - - - 05:32 04:33 00:00
Minimum _ 0,9 C 82 % 1007,9 hPa - 0,0 km/h (0 Bft) - - - - - -0,3 C -9,7 C 0,0 km/h (0 Bft)
Max-Datum _ 19.12.14 18.12.14 21.12.14 17.12.14 19.12.14 - 15.12.14 15.12.14 15.12.14 15.12.14 18.12.14 19.12.14 19.12.14
_ Max-Zeit 00:16 09:56 10:49 17:04 03:59 - 11:55 15:00 13:12 14:18 22:52 00:48 12:13
Maximum _ 10,5 C 99 % 1030,9 hPa 0,8 l/m 32,2 km/h
W-SW (5 Bft)
- 0,07 h 0,076 mm 0,6 UV-I 232 W/m 10,0 C 10,4 C 49,9 km/h
W-SW (7 Bft)
Durchschnitt _ 4,8 C 92 % 1016,9 hPa #9,8 l/m 8,2 km/h (2 Bft) W-SW #12:43 h #1,769 mm 0,5 UV-I 34 W/m 3,6 C 2,6 C 13,1 km/h (3 Bft)